[[{"header":{"parameterUnit":"m.s-1","parameterCategory":1,"la1":30.2991,"la2":30.254,"lo1":-89.0895,"lo2":-89.0444,"dy":0.0017,"dx":0.0017,"nx":28,"ny":28,"refTime":"2024-06-15T03:00:00:Z","depth":0,"parameterNumber":2,"parameterNumberName":"U-component_of_WINDS"},"data":[0,0,0,0,0,0,0,0,0,0,0,0,0,0,0,0,0,0,0,0,0,0,0,0,0,0,0,0,0,0,0,0,0,0,0,0,0,0,0,0,0,0,0,0,0,0,0,0,0,0,0,0,0,0,0,0,0,0,-4.1228,-4.1229,0,-4.1311,-4.1312,-4.1313,-4.1267,-4.1265,-4.1263,-4.126,-4.1341,-4.1345,-4.135,0,0,0,0,0,0,0,0,0,0,0,0,0,-4.1023,-4.1027,-4.1228,-4.1229,-4.123,-4.1311,-4.1312,-4.1313,-4.1267,-4.1265,-4.1262,-4.1259,-4.134,-4.1345,-4.135,0,0,0,0,0,0,0,0,0,0,0,0,0,-4.111,-4.1029,-4.1227,-4.1217,-4.1217,-4.1311,-4.1312,-4.1314,-4.1268,-4.1265,-4.1261,-4.1258,-4.1338,-4.1344,-4.1351,-4.1459,0,0,-4.137,-4.1373,0,0,0,0,0,0,0,0,-4.1105,-4.1117,-4.1217,-4.1218,-4.1218,-4.1275,-4.127,-4.1362,-4.1269,-4.1248,-4.126,-4.1256,-4.1322,-4.1329,-4.1352,-4.1463,-4.1466,-4.1371,-4.1375,-4.1378,-4.1379,0,0,0,0,0,0,0,-4.1099,-4.1113,-4.126,-4.1219,-4.1219,-4.1206,-4.1215,-4.1287,-4.1303,-4.125,-4.1247,-4.1258,-4.1321,-4.1346,-4.1354,-4.1467,-4.1371,-4.1376,-4.138,-4.1383,-4.1668,-4.1671,0,0,0,0,0,0,-4.1094,-4.1109,-4.1258,-4.1263,-4.1152,-4.1213,-4.1222,-4.126,-4.1302,-4.1305,-4.126,-4.1255,-4.1337,-4.1346,-4.1357,-4.1483,-4.1378,-4.1384,-4.1387,-4.1664,-4.1668,-4.1672,0,0,0,0,0,0,-4.109,-4.1108,-4.1254,-4.1185,-4.1203,-4.122,-4.1263,-4.1264,-4.1289,-4.131,-4.1312,-4.1283,-4.1335,-4.1348,-4.1433,-4.1486,-4.1386,-4.1392,-4.166,-4.1665,-4.167,-4.1739,0,0,0,0,0,0,-4.1084,-4.1107,-4.1149,-4.1187,-4.1207,-4.1332,-4.1266,-4.1268,-4.13,-4.1294,-4.1332,-4.1335,-4.1333,-4.1424,-4.144,-4.1493,-4.1397,-4.1655,-4.1662,-4.1669,-4.1732,-4.1747,-4.1759,0,0,0,0,0,-4.1077,-4.1165,-4.1152,-4.117,-4.126,-4.1335,-4.1346,-4.1343,-4.1305,-4.1346,-4.136,-4.1334,-4.1478,-4.1433,-4.1451,-4.1506,-4.1651,-4.166,-4.1668,-4.1726,-4.1744,-4.1758,0,0,0,0,0,0,-4.1131,-4.1169,-4.1155,-4.1258,-4.1294,-4.1327,-4.1379,-4.1362,-4.1408,-4.14,-4.1393,-4.1402,-4.1491,-4.1508,-4.1457,-4.1612,-4.1559,-4.1571,-4.1597,-4.1614,-4.1627,-4.1619,-4.1403,0,0,0,0,0,-4.1156,-4.1215,-4.1244,-4.1331,-4.135,-4.1362,-4.1394,-4.1389,-4.1425,-4.144,-4.146,-4.1494,-4.1547,-4.1582,-4.1632,-4.1736,-4.1742,-4.1782,-4.1796,-4.1806,-4.1816,-4.1869,-4.1887,-4.17,-4.17,-4.17,0,0,-4.1205,-4.1234,-4.1271,-4.1343,-4.137,-4.1429,-4.1375,-4.144,-4.1483,-4.1449,-4.1531,-4.1547,-4.1585,-4.168,-4.1723,-4.1696,-4.1869,-4.1817,-4.1825,-4.1829,-4.188,-4.1897,-4.1913,-4.1706,-4.1705,-4.1704,0,0,-4.1326,-4.1355,-4.1429,-4.1458,-4.15,-4.1507,-4.1525,-4.1562,-4.1571,-4.1654,-4.1629,-4.168,-4.1772,-4.1799,-4.1825,-4.1957,-4.1933,-4.1973,-4.204,-4.2093,-4.2107,-4.212,-4.2164,-4.218,-4.1983,-4.1984,-4.1984,0,-4.1381,-4.1471,-4.1469,-4.1536,-4.1567,-4.1542,-4.1616,-4.1643,-4.1699,-4.172,-4.1691,-4.1805,-4.1829,-4.1929,-4.1961,-4.1984,-4.2002,-4.1967,-4.2106,-4.2119,-4.2131,-4.2172,-4.2189,-4.1988,-4.1987,-4.1987,-4.1987,0,-4.1536,-4.1598,-4.1654,-4.1709,-4.1747,-4.1818,-4.1825,-4.1863,-4.1855,-4.1865,-4.1948,-4.1977,-4.2031,-4.2055,-4.2048,-4.2153,-4.2135,-4.2107,-4.2052,-4.2153,-4.2191,-4.2208,-4.1994,-4.1993,-4.1991,-4.199,0,0,-4.169,-4.1745,-4.1764,-4.1788,-4.1834,-4.1881,-4.195,-4.2004,-4.2036,-4.2076,-4.2131,-4.221,-4.2183,-4.2213,-4.2209,-4.2255,-4.2353,-4.222,-4.2221,-4.2241,-4.2468,-4.2487,-4.2506,-4.234,-4.2343,-4.2346,-4.2464,0,-4.181,-4.1931,-4.1932,-4.2042,-4.2098,-4.2075,-4.2134,-4.2167,-4.2179,-4.2227,-4.2239,-4.2294,-4.2256,-4.2273,-4.2319,-4.2332,-4.2398,-4.2324,-4.2388,-4.239,-4.2375,-4.2526,-4.2547,-4.2657,-4.2479,-4.2482,-4.2484,0,-4.1966,-4.2012,-4.2128,-4.2164,-4.2188,-4.2241,-4.229,-4.2338,-4.2374,-4.2379,-4.2413,-4.2401,-4.2469,-4.2416,-4.2507,-4.2457,-4.2484,-4.2494,-4.2498,-4.2501,-4.244,-4.253,-4.2692,-4.2707,-4.2508,-4.2506,-4.2505,0,-4.2062,-4.2154,-4.2234,-4.2256,-4.2301,-4.2339,-4.2359,-4.2392,-4.2425,-4.2468,-4.2488,-4.2538,-4.2565,-4.2603,-4.2605,-4.2567,-4.2696,-4.2644,-4.2699,-4.2699,-4.2725,-4.2722,-4.289,-4.2749,-4.2748,-4.2748,-4.2748,0,-4.2195,-4.2266,-4.2278,-4.2327,-4.2406,-4.2406,-4.2483,-4.25,-4.253,-4.258,-4.2564,-4.2611,-4.2613,-4.2661,-4.2663,-4.2736,-4.275,-4.2753,-4.2752,-4.2753,-4.2752,-4.2767,-4.2758,-4.2752,-4.2751,-4.2751,-4.275,0,-4.2314,-4.2325,-4.2411,-4.2447,-4.2458,-4.2514,-4.2543,-4.2589,-4.26,-4.2664,-4.2679,-4.2695,-4.2751,-4.2757,-4.2822,-4.2823,-4.2911,-4.2904,-4.2899,-4.2896,-4.295,-4.2944,-4.3131,-4.3154,-4.3001,-4.3002,-4.3004,0,-4.2395,-4.245,-4.2492,-4.2525,-4.2547,-4.2602,-4.2635,-4.2637,-4.2672,-4.2718,-4.2757,-4.2812,-4.2855,-4.2945,-4.2961,-4.3011,-4.3002,-4.3064,-4.3009,-4.3007,-4.2998,-4.2994,-4.2998,-4.3074,-4.3075,-4.3077,-4.3078,0,-4.2538,-4.2541,-4.259,-4.2641,-4.2682,-4.2722,-4.2759,-4.2787,-4.2794,-4.2834,-4.2891,-4.2925,-4.2992,-4.3045,-4.3094,-4.3112,-4.3095,-4.3096,-4.311,-4.3109,-4.3103,-4.3103,-4.2924,-4.309,-4.3089,-4.3088,-4.3088,-4.3087,-4.2638,-4.2684,-4.2721,-4.2776,-4.2805,-4.284,-4.2885,-4.2901,-4.295,-4.3005,-4.3003,-4.3066,-4.31,-4.3164,-4.3186,-4.3234,-4.3213,-4.3235,-4.324,-4.3245,-4.3248,-4.3099,-4.3243,-4.3243,-4.3243,-4.3242,-4.3242,0,-4.2776,-4.2799,-4.285,-4.2903,-4.2946,-4.293,-4.297,-4.3006,-4.3062,-4.3096,-4.3139,-4.3205,-4.3256,-4.3277,-4.3328,-4.3362,-4.3355,-4.3374,-4.337,-4.3374,-4.3266,-4.3246,-4.3379,-4.3379,-4.3379,-4.3379,-4.3379,-4.3379,-4.2853,-4.293,-4.2937,-4.3027,-4.3049,-4.3111,-4.3135,-4.3167,-4.3194,-4.3268,-4.3312,-4.3326,-4.3354,-4.3406,-4.3452,-4.3457,-4.3474,-4.3497,-4.3498,-4.3396,-4.3382,-4.3368,-4.335,-4.3501,-4.3502,-4.3601,-4.3602,-4.3602]},{"header":{"parameterUnit":"m.s-1","parameterCategory":1,"la1":30.2991,"la2":30.254,"lo1":-89.0895,"lo2":-89.0444,"dy":0.0017,"dx":0.0017,"nx":28,"ny":28,"refTime":"2024-06-15T03:00:00:Z","depth":0,"parameterNumber":3,"parameterNumberName":"V-component_of_WINDS"},"data":[0,0,0,0,0,0,0,0,0,0,0,0,0,0,0,0,0,0,0,0,0,0,0,0,0,0,0,0,0,0,0,0,0,0,0,0,0,0,0,0,0,0,0,0,0,0,0,0,0,0,0,0,0,0,0,0,0,0,1.0952,1.0953,0,1.1009,1.101,1.1011,1.1001,1.0999,1.0998,1.0998,1.1054,1.1056,1.1058,0,0,0,0,0,0,0,0,0,0,0,0,0,1.0833,1.0835,1.0952,1.0953,1.0954,1.1009,1.101,1.1011,1.1001,1.0999,1.0998,1.0997,1.1053,1.1056,1.1059,0,0,0,0,0,0,0,0,0,0,0,0,0,1.0887,1.0836,1.0952,1.0955,1.0956,1.1009,1.101,1.1011,1.1001,1.0999,1.0998,1.0997,1.1052,1.1055,1.1059,1.1112,0,0,1.107,1.1072,0,0,0,0,0,0,0,0,1.0884,1.0891,1.0954,1.0955,1.0956,1.0996,1.0989,1.1045,1.1001,1.0984,1.0998,1.0996,1.1036,1.1041,1.1055,1.1114,1.1117,1.1071,1.1073,1.1074,1.1075,0,0,0,0,0,0,0,1.088,1.0889,1.0975,1.0955,1.0956,1.0954,1.096,1.0999,1.1017,1.0985,1.0985,1.0992,1.1036,1.1051,1.1056,1.1118,1.107,1.1074,1.1076,1.1077,1.1225,1.1227,0,0,0,0,0,0,1.0876,1.0886,1.0973,1.0976,1.0916,1.0957,1.0964,1.0985,1.1017,1.102,1.0993,1.0991,1.1046,1.1052,1.1058,1.1122,1.1074,1.1078,1.108,1.1223,1.1225,1.1227,0,0,0,0,0,0,1.0873,1.0883,1.0971,1.0931,1.0942,1.0961,1.0985,1.0987,1.1002,1.1023,1.1026,1.1005,1.1045,1.1053,1.1099,1.1124,1.1079,1.1083,1.1221,1.1224,1.1226,1.1252,0,0,0,0,0,0,1.087,1.0883,1.0903,1.0932,1.0944,1.1011,1.0986,1.0989,1.1009,1.1007,1.1035,1.1038,1.1044,1.1094,1.1103,1.1128,1.1086,1.1219,1.1222,1.1225,1.1249,1.1255,1.126,0,0,0,0,0,1.0865,1.0907,1.0904,1.0915,1.097,1.1013,1.102,1.1026,1.1011,1.1031,1.1045,1.1037,1.112,1.1098,1.1108,1.1136,1.1217,1.1221,1.1225,1.1246,1.1253,1.126,0,0,0,0,0,0,1.0879,1.0911,1.0908,1.096,1.0984,1.1011,1.1037,1.1034,1.1062,1.1059,1.1065,1.1072,1.1119,1.1132,1.1107,1.1189,1.1166,1.1173,1.1179,1.1186,1.1192,1.1188,1.1089,0,0,0,0,0,1.0889,1.0922,1.0947,1.099,1.1003,1.1018,1.1037,1.104,1.1065,1.1074,1.1091,1.1115,1.1147,1.1167,1.1197,1.1251,1.1257,1.1274,1.128,1.1285,1.129,1.132,1.1329,1.124,1.124,1.124,0,0,1.0908,1.0929,1.0949,1.0994,1.1013,1.1046,1.1026,1.1062,1.1087,1.1079,1.1125,1.1138,1.1165,1.1216,1.1239,1.1228,1.1316,1.129,1.1293,1.1296,1.1325,1.1334,1.1341,1.1243,1.1242,1.1242,0,0,1.096,1.098,1.1019,1.1039,1.1068,1.1078,1.1088,1.1116,1.1125,1.1171,1.1166,1.1195,1.1249,1.1269,1.1286,1.1348,1.1343,1.1358,1.1388,1.1417,1.1424,1.143,1.1453,1.1461,1.1363,1.1363,1.1363,0,1.098,1.1031,1.1039,1.1076,1.1096,1.1092,1.1132,1.115,1.1188,1.1202,1.1189,1.1258,1.1276,1.1331,1.1347,1.1361,1.1372,1.1354,1.1423,1.1429,1.1435,1.1457,1.1465,1.1365,1.1364,1.1364,1.1364,0,1.1055,1.109,1.1118,1.1156,1.1179,1.1217,1.123,1.1253,1.1254,1.1266,1.1313,1.1335,1.137,1.1383,1.1384,1.144,1.1432,1.1421,1.1399,1.1445,1.1466,1.1474,1.1367,1.1366,1.1366,1.1366,0,0,1.1117,1.116,1.117,1.1187,1.1221,1.1248,1.1286,1.1321,1.1341,1.1367,1.14,1.1446,1.1437,1.1457,1.146,1.1486,1.1535,1.1472,1.1473,1.1484,1.1598,1.1607,1.1616,1.1532,1.1533,1.1535,1.1596,0,1.1173,1.1241,1.125,1.131,1.1344,1.1341,1.1375,1.1398,1.1411,1.144,1.1453,1.1487,1.1472,1.1484,1.1509,1.1524,1.1558,1.1519,1.1562,1.1564,1.1556,1.1627,1.1635,1.1692,1.1604,1.1606,1.1607,0,1.1247,1.1277,1.1341,1.1371,1.1386,1.1416,1.1449,1.1478,1.1505,1.1512,1.1535,1.1536,1.1576,1.1552,1.1607,1.158,1.1598,1.1608,1.1611,1.1615,1.1588,1.1633,1.1711,1.1719,1.1619,1.1618,1.1617,0,1.1286,1.1343,1.1389,1.1404,1.144,1.1461,1.1477,1.1503,1.1524,1.1554,1.1568,1.1601,1.1619,1.1645,1.1655,1.1636,1.171,1.1686,1.1717,1.1717,1.1732,1.1731,1.1814,1.1743,1.1743,1.1743,1.1743,0,1.1348,1.1388,1.1408,1.1436,1.1481,1.149,1.1534,1.1549,1.1572,1.1603,1.1603,1.1632,1.1643,1.1674,1.1682,1.1727,1.1735,1.1742,1.1744,1.1742,1.1742,1.1754,1.1751,1.1745,1.1745,1.1744,1.1744,0,1.14,1.1414,1.1465,1.1495,1.1504,1.1536,1.1562,1.1589,1.1601,1.1641,1.1651,1.167,1.1707,1.172,1.1764,1.1769,1.1822,1.182,1.1813,1.1813,1.1843,1.1841,1.1937,1.1951,1.1871,1.1872,1.1872,0,1.1438,1.1469,1.1503,1.1525,1.1542,1.1576,1.1598,1.1609,1.1632,1.1667,1.169,1.1727,1.1757,1.1816,1.1834,1.1868,1.1867,1.1899,1.1872,1.187,1.1868,1.1867,1.187,1.1903,1.1904,1.1905,1.1905,0,1.1505,1.1512,1.1544,1.158,1.1606,1.1634,1.1662,1.1679,1.1694,1.172,1.1758,1.1782,1.1828,1.1865,1.19,1.1916,1.1914,1.1914,1.1923,1.1922,1.1917,1.1921,1.1827,1.1912,1.1911,1.191,1.191,1.191,1.1552,1.158,1.1609,1.1645,1.1667,1.1693,1.1721,1.1738,1.177,1.1809,1.1813,1.1855,1.1883,1.193,1.1948,1.198,1.1972,1.1984,1.1988,1.1991,1.1993,1.1912,1.1987,1.1987,1.1986,1.1986,1.1986,0,1.162,1.1639,1.1672,1.1711,1.174,1.1736,1.1767,1.1791,1.1828,1.1854,1.1884,1.1929,1.1965,1.1986,1.2023,1.2045,1.2045,1.2054,1.2053,1.2057,1.1999,1.1988,1.2054,1.2054,1.2054,1.2054,1.2054,1.2054,1.1659,1.1706,1.1716,1.1774,1.1793,1.1834,1.1852,1.1876,1.1897,1.1947,1.1978,1.1992,1.2016,1.2055,1.2088,1.2093,1.2107,1.2117,1.2122,1.2067,1.206,1.2054,1.2044,1.212,1.212,1.2177,1.2177,1.2178]}]]